This is the latest recevied weather packets stored in our database for station/object 4S6DRJ-13. If no packets are shown the sender has not sent any weather packets the latest 10 day(s).
| Time | Temp. | Humidity | Pressure | Rain* | Wind** | Luminosity | Snow |
|---|---|---|---|---|---|---|---|
| 1788028174 | 27.78° C | 85% | 1010.7 hPa | 0 mm | 1.34 m/s, 220° | 0 W/m² | - |
| 1788028113 | 27.78° C | 85% | 1010.7 hPa | 0 mm | 0.89 m/s, 172° | 0 W/m² | - |
| 1788028052 | 27.78° C | 85% | 1010.7 hPa | 0 mm | 2.24 m/s, 223° | 0 W/m² | - |
| 1788027991 | 27.78° C | 85% | 1010.7 hPa | 0 mm | 2.24 m/s, 245° | 0 W/m² | - |
| 1788027930 | 27.78° C | 85% | 1010.8 hPa | 0 mm | 1.34 m/s, 220° | 0 W/m² | - |
| 1788027869 | 27.78° C | 85% | 1010.6 hPa | 0 mm | 0.89 m/s, 344° | 0 W/m² | - |
| 1788027808 | 27.78° C | 85% | 1010.7 hPa | 0 mm | 0.89 m/s, 230° | 0 W/m² | - |
| 1788027747 | 27.78° C | 85% | 1010.7 hPa | 0 mm | 0.89 m/s, 220° | 0 W/m² | - |
| 1788027686 | 27.78° C | 85% | 1010.8 hPa | 0 mm | 0.45 m/s, 215° | 0 W/m² | - |
| 1788027625 | 27.78° C | 85% | 1010.8 hPa | 0 mm | 0.89 m/s, 258° | 0 W/m² | - |
| 1788027564 | 27.78° C | 85% | 1010.8 hPa | 0 mm | 0.45 m/s, 229° | 0 W/m² | - |
| 1788027503 | 27.78° C | 85% | 1010.9 hPa | 0 mm | 0.89 m/s, 225° | 0 W/m² | - |
| 1788027442 | 27.78° C | 85% | 1010.8 hPa | 0 mm | 1.34 m/s, 228° | 0 W/m² | - |
| 1788027381 | 27.78° C | 85% | 1010.7 hPa | 0 mm | 0.89 m/s, 218° | 0 W/m² | - |
| 1788027328 | 27.78° C | 85% | 1010.7 hPa | 0 mm | 0.45 m/s, 207° | 0 W/m² | - |
| 1788027259 | 27.78° C | 85% | 1010.8 hPa | 0 mm | 1.79 m/s, 236° | 0 W/m² | - |
| 1788027198 | 27.78° C | 85% | 1010.9 hPa | 0 mm | 0 m/s | 0 W/m² | - |
| 1788027136 | 27.78° C | 84% | 1010.9 hPa | 0 mm | 0.45 m/s, 258° | 0 W/m² | - |
| 1788027076 | 27.78° C | 84% | 1010.8 hPa | 0 mm | 1.34 m/s, 219° | 0 W/m² | - |
| 1788027015 | 27.78° C | 84% | 1010.9 hPa | 0 mm | 0.45 m/s, 237° | 0 W/m² | - |
| 1788026954 | 27.78° C | 84% | 1010.9 hPa | 0 mm | 0.89 m/s, 232° | 0 W/m² | - |
| 1788026893 | 27.78° C | 84% | 1011.1 hPa | 0 mm | 0 m/s | 0 W/m² | - |
| 1788026832 | 27.78° C | 84% | 1010.9 hPa | 0 mm | 0 m/s | 0 W/m² | - |
| 1788026771 | 27.78° C | 84% | 1011.1 hPa | 0 mm | 0.89 m/s, 205° | 0 W/m² | - |
| 1788026710 | 27.78° C | 84% | 1011.2 hPa | 0 mm | 0.45 m/s, 211° | 0 W/m² | - |
* Rain latest hour (hover to see other rain measurements)
** Current wind speed in m/s (hover to see current wind gust speed)